Theta_e
285 285 285 285 285 285 285 285 285 285 285 285 285 285 285 285 285 285 285 285 285 285 285 286 286 286 286 286 286 286 286 286 286 287 287 287 287 287 288 288 288 288 288 288 288 288 288 288 289 289 289 289 289 289 289 289 289 289 289 289 289 289 289 289 289 290 290 290 290 291 291 291 292 292 292 292 292 292 292 293 293 293 294 294 294 294
285 285 285 285 285 285 285 285 285 285 285 285 285 285 285 285 285 285 285 285 285 286 286 286 286 286 286 286 286 286 286 286 286 287 287 287 287 287 287 287 287 287 287 287 288 288 288 288 288 288 288 288 288 288 288 288 288 288 288 288 288 288 289 289 289 289 289 289 290 290 290 291 291 291 292 292 292 292 292 292 292 293 293 293 293 293
285 285 285 285 285 285 285 285 285 285 285 285 285 285 285 285 285 286 286 286 286 286 286 286 286 286 286 286 286 286 286 286 286 286 286 286 286 286 286 287 287 287 287 287 287 287 287 287 287 287 286 286 286 287 287 287 287 287 287 288 288 288 288 289 289 289 289 289 290 290 290 290 290 291 291 291 291 291 291 292 292 292 293 293 293 293
285 285 285 285 285 285 285 285 285 285 285 285 285 285 285 286 286 286 286 286 286 286 286 286 286 286 285 285 285 285 286 286 286 286 286 286 286 286 286 286 286 286 286 286 286 286 286 286 286 286 286 286 286 286 287 287 287 287 287 288 288 288 289 289 289 289 289 290 290 290 290 290 290 290 290 290 290 291 291 291 292 292 292 292 293 293
285 285 285 285 285 285 285 285 285 285 285 285 285 286 286 286 286 286 286 286 286 286 286 286 285 285 285 285 285 285 285 285 285 285 285 285 285 285 285 285 285 285 285 285 285 285 285 285 286 286 286 286 286 287 287 287 287 288 288 288 288 288 289 289 289 289 290 290 290 290 290 291 291 291 291 291 291 291 291 292 292 292 292 293 293 293
285 285 285 285 285 285 285 285 285 285 285 285 286 286 286 286 287 287 287 286 286 286 285 285 285 285 284 284 284 284 284 284 284 284 284 284 284 284 284 284 284 284 284 285 285 285 285 285 286 286 286 286 287 287 287 287 288 288 288 288 288 288 289 289 289 289 290 290 290 290 290 290 291 291 291 291 291 291 292 292 292 292 293 293 293 293
285 285 285 285 285 285 285 285 285 285 285 286 286 286 286 287 287 286 286 286 285 285 285 285 284 284 284 284 284 284 284 284 284 284 283 284 284 284 284 284 284 284 284 285 285 285 285 286 286 286 286 287 287 287 287 287 288 288 288 288 288 288 288 288 289 289 289 289 289 289 289 289 290 290 290 290 290 290 291 291 291 291 292 292 292 292
285 285 285 285 285 285 285 285 285 286 286 286 286 287 287 286 286 286 285 285 285 285 284 284 284 284 283 283 283 283 283 283 283 283 283 283 283 284 284 284 284 284 285 285 285 285 285 286 286 286 286 287 287 287 287 287 287 287 287 287 287 287 287 287 287 288 288 288 288 288 288 288 288 288 289 289 289 289 289 290 290 290 290 290 291 291
285 285 285 285 285 285 285 286 286 286 286 286 287 287 286 286 285 285 285 284 284 284 284 284 283 283 283 283 283 283 283 283 283 283 283 283 284 284 284 284 284 285 285 285 285 285 286 286 286 286 286 286 286 286 286 286 286 286 286 286 286 286 286 286 286 286 287 287 287 287 287 287 288 288 288 288 288 288 288 288 289 289 289 290 290 290
285 285 285 285 285 286 286 286 286 287 287 287 286 286 286 285 285 284 284 284 284 283 283 283 283 283 283 283 283 283 283 283 283 283 284 284 284 284 284 284 284 285 285 285 285 285 285 285 285 285 285 285 285 285 285 285 285 285 285 285 285 285 285 285 285 286 286 286 286 286 287 287 287 287 287 288 288 288 288 288 288 288 288 289 289 289
285 285 286 286 286 286 286 287 287 287 286 286 286 285 285 284 284 284 284 284 283 283 283 283 283 283 283 283 283 283 283 283 284 284 284 284 284 284 284 284 284 285 285 285 285 285 285 284 284 284 284 284 284 284 284 284 284 284 284 284 285 285 285 285 285 285 285 285 286 286 286 286 287 287 287 287 287 287 287 288 287 288 288 288 288 289
286 286 286 286 286 287 287 287 286 286 285 285 285 284 284 284 284 283 283 283 283 283 283 283 283 283 283 283 283 283 284 284 284 284 284 284 284 284 284 284 284 284 284 284 284 284 284 284 284 284 284 284 284 284 284 284 284 284 284 284 284 284 284 284 285 285 285 285 285 286 286 286 287 287 287 287 287 287 287 287 287 287 288 288 288 288
286 286 286 287 287 287 286 286 285 285 284 284 284 284 284 283 283 283 283 283 283 283 283 283 283 283 283 284 284 284 284 284 284 284 284 284 284 284 284 284 284 284 283 283 283 283 283 283 283 283 283 283 284 284 284 284 284 284 284 284 284 284 284 284 284 285 285 285 286 286 286 286 286 287 287 287 287 287 287 287 287 288 288 288 288 288
287 287 287 287 286 286 285 285 285 284 284 284 284 283 283 283 283 283 283 283 283 283 283 283 283 284 284 284 284 284 284 284 284 284 284 284 284 284 284 283 283 283 283 283 283 283 283 283 283 283 283 283 283 283 283 283 283 283 283 283 284 284 284 284 285 285 285 286 286 286 286 286 286 287 287 287 287 287 287 287 288 288 288 288 288 289
287 287 286 285 285 285 285 284 284 284 283 283 283 283 283 283 283 283 283 283 283 283 283 284 284 284 284 284 284 284 284 284 284 284 284 284 283 283 283 283 283 283 283 283 283 283 283 283 283 283 283 283 283 283 283 283 283 283 283 284 284 284 285 285 285 285 286 286 286 286 286 286 286 287 287 287 287 287 287 288 288 288 288 288 289 289
286 285 285 285 285 284 284 284 284 283 283 283 283 283 283 283 283 283 283 283 283 284 284 284 284 285 284 284 284 284 284 284 284 283 283 283 283 283 283 283 283 283 283 283 283 283 283 283 283 283 283 283 283 283 283 283 283 283 284 284 284 284 285 285 285 285 285 286 286 286 286 286 286 286 286 287 287 287 287 287 288 288 288 288 288 289
285 285 284 284 284 284 284 283 283 283 283 282 282 283 283 283 283 283 283 284 284 284 284 285 285 285 285 284 284 284 284 283 283 283 283 283 283 283 283 283 283 283 283 283 283 283 283 283 283 283 282 283 283 283 283 283 283 284 284 284 284 284 284 285 285 285 285 285 285 286 286 286 286 286 287 287 287 287 287 287 287 288 288 288 288 288
284 284 284 284 284 283 283 283 282 282 282 283 283 283 283 283 283 284 284 284 284 285 285 285 285 284 284 284 284 283 283 283 283 283 283 283 283 283 283 283 283 283 283 283 283 283 282 282 282 282 282 283 283 283 283 283 283 283 283 284 284 284 284 284 285 285 285 285 285 286 286 286 286 287 287 287 287 287 287 287 287 288 288 288 288 288
284 284 284 283 283 283 283 282 282 283 283 283 283 283 283 284 284 284 284 284 285 284 284 284 284 284 284 284 283 283 283 283 283 283 283 283 283 283 283 283 283 283 282 282 282 282 282 282 282 282 282 282 283 283 283 283 283 283 283 283 284 284 284 284 285 285 285 285 285 286 286 286 286 286 287 287 287 287 287 288 288 288 288 288 288 289
283 283 283 283 282 282 282 282 283 283 283 283 283 284 284 284 284 284 285 284 284 284 284 283 283 283 283 283 283 283 283 283 283 283 283 283 283 283 283 282 282 282 282 282 282 282 282 282 282 282 282 282 282 282 283 283 283 283 283 284 284 284 284 284 285 285 285 285 285 286 286 286 286 286 286 287 287 287 287 287 288 288 288 288 289 289
283 283 282 282 282 282 283 283 283 283 283 283 284 284 284 284 284 284 284 284 283 283 283 283 283 283 283 283 283 283 283 283 283 283 283 283 283 282 282 282 282 282 282 282 282 282 282 282 282 282 282 282 282 282 283 283 283 283 283 283 284 284 284 284 284 285 285 285 285 285 286 286 286 286 286 286 287 287 287 287 287 287 288 288 288 289
283 282 282 282 283 283 283 283 283 283 284 284 284 285 285 284 284 284 283 283 283 283 283 283 283 283 283 283 283 283 283 283 283 283 282 283 282 282 282 282 282 282 282 282 282 282 282 282 282 282 282 282 282 282 282 283 283 283 283 283 283 284 284 284 284 284 285 285 285 285 285 286 286 286 286 286 286 287 287 287 287 287 287 287 288 288
283 283 283 283 283 283 283 283 284 284 284 285 285 284 284 284 283 283 283 283 283 283 283 283 283 283 283 283 283 283 283 282 282 282 282 282 282 282 282 282 282 282 282 282 282 282 282 282 282 282 282 282 282 282 282 282 283 283 283 283 283 284 284 284 284 284 285 285 285 285 285 285 286 286 286 286 286 287 287 287 287 287 287 287 287 287
283 283 283 283 284 284 284 284 285 285 285 284 284 283 283 283 283 283 283 283 283 283 283 283 283 283 283 283 283 282 282 282 282 282 282 282 282 282 282 282 282 282 282 282 282 282 282 282 281 282 282 282 282 282 282 282 283 283 283 283 283 283 284 284 284 284 284 285 285 285 285 286 286 286 286 287 287 287 287 287 287 287 288 288 288 288
283 284 284 284 284 285 285 285 285 284 284 283 283 283 283 283 283 283 283 283 283 283 283 283 283 283 283 282 282 282 282 282 282 282 282 282 282 282 282 282 282 282 282 282 282 281 281 281 281 282 282 282 282 282 282 282 283 283 283 283 283 283 283 284 284 284 284 285 285 285 285 286 286 286 286 287 287 287 287 287 287 287 288 288 288 288
284 284 285 285 285 285 284 284 283 283 283 283 283 283 283 283 283 283 283 283 283 283 283 283 283 283 282 282 282 282 282 282 282 282 282 282 282 282 282 282 282 282 282 282 281 281 281 282 282 282 282 282 282 282 282 282 282 282 283 283 283 283 283 284 284 284 284 285 285 285 285 285 285 286 286 286 286 286 286 287 287 287 287 287 288 288
284 284 284 284 284 283 282 282 282 282 282 282 282 282 283 283 283 283 283 283 283 282 282 282 282 282 282 282 282 282 282 282 282 282 281 282 282 282 282 282 282 282 281 281 281 281 282 282 282 282 282 282 282 282 282 282 282 282 283 283 283 283 283 284 284 284 284 284 284 284 285 285 285 285 285 286 286 286 286 286 287 287 287 287 287 287
284 283 283 282 282 282 282 282 282 282 282 282 282 282 282 282 282 283 283 282 282 282 282 282 282 282 282 282 282 282 281 281 281 282 281 281 282 282 282 282 281 281 281 281 281 282 282 282 282 282 282 282 282 282 282 282 282 282 283 283 283 283 283 283 283 283 284 284 284 284 285 285 285 285 286 286 286 286 286 287 287 287 287 287 287 288
282 282 281 281 281 281 281 281 281 281 281 281 282 282 282 282 282 282 282 282 282 281 281 282 282 282 282 282 281 281 281 281 282 282 281 281 281 282 281 281 281 281 282 282 282 282 282 282 282 282 282 282 282 282 282 282 282 282 282 282 282 283 283 283 283 283 284 284 284 284 285 285 285 285 286 286 286 286 287 287 287 287 287 288 288 288
281 281 281 281 281 281 281 281 281 281 281 281 281 282 282 282 282 282 281 281 281 281 281 281 281 281 281 281 281 282 281 282 282 281 281 281 281 282 281 281 281 281 281 282 282 282 282 282 282 282 282 282 282 282 282 282 282 282 282 282 282 282 283 283 283 283 284 284 284 284 285 285 285 286 286 286 286 286 286 287 287 287 287 288 288 288
281 281 281 281 281 280 280 280 281 281 281 281 281 281 281 281 281 281 281 281 281 281 281 281 281 281 281 281 281 282 281 281 281 281 281 281 281 281 281 281 282 281 281 282 282 282 282 282 282 282 282 282 282 282 282 282 282 282 282 282 282 282 283 283 283 283 284 284 284 285 285 285 285 285 286 286 286 286 286 286 287 287 287 287 287 287
281 281 281 281 280 280 280 280 281 281 281 281 281 281 281 281 281 281 281 281 281 281 281 281 281 281 281 281 281 281 281 281 281 281 281 281 281 281 281 281 281 282 281 282 282 282 282 282 282 282 282 282 282 282 282 282 282 282 282 283 282 283 283 283 283 284 284 284 284 284 285 285 285 285 285 285 286 286 286 286 287 287 287 287 287 287
281 281 280 280 280 280 280 281 281 280 280 280 280 280 280 280 280 280 280 280 280 280 280 280 281 281 281 281 281 281 281 281 281 281 281 281 281 281 281 281 281 282 282 282 281 282 282 282 282 282 282 282 282 282 282 282 282 283 283 283 283 283 283 283 283 283 284 284 284 284 284 284 284 285 285 285 285 285 286 286 286 286 287 287 287 287
280 280 280 280 280 280 280 280 280 280 280 280 280 280 280 280 280 280 280 280 280 280 280 280 280 280 280 281 281 281 281 281 281 281 281 281 281 281 281 281 281 281 281 282 282 282 282 282 282 282 282 282 282 282 283 283 283 283 283 283 283 283 283 283 283 283 283 283 283 283 283 284 284 284 284 284 284 285 285 285 286 286 286 286 286 287
280 280 280 280 280 280 280 280 280 280 280 280 280 280 280 280 280 280 280 280 280 280 280 280 280 280 280 280 281 281 281 281 281 281 281 281 281 281 281 281 281 281 281 282 282 282 282 282 282 282 282 282 282 283 283 283 283 283 283 283 283 283 283 283 283 283 283 283 283 283 283 283 283 283 284 284 284 284 284 285 285 286 286 286 287 287
280 280 280 280 280 280 280 280 280 280 280 280 280 280 280 280 280 280 280 280 280 280 280 280 280 280 280 280 280 280 280 281 281 281 281 281 281 281 281 281 281 281 281 282 282 282 282 282 282 282 282 282 283 283 283 283 283 283 283 283 283 283 283 283 283 283 283 283 283 283 283 283 283 283 284 284 284 284 285 285 285 286 286 286 287 287
280 280 280 280 280 280 280 280 280 280 280 280 280 280 280 280 280 280 280 280 280 280 280 280 280 280 280 280 280 280 280 280 281 281 281 281 281 281 281 281 281 281 281 281 282 282 282 282 282 282 282 283 283 283 283 283 283 283 283 283 283 283 283 283 283 283 283 283 283 284 284 284 284 284 284 284 285 285 285 285 286 286 286 286 287 287
280 280 280 280 280 280 280 280 280 280 280 280 280 280 280 280 280 280 280 280 280 280 280 280 280 280 280 280 280 280 280 280 280 280 280 281 281 281 281 281 281 281 281 281 281 281 282 282 282 282 282 282 283 283 283 283 283 283 283 283 283 283 284 284 284 284 284 284 284 284 284 284 284 285 285 285 285 285 285 285 285 286 286 286 287 287
280 280 280 280 280 280 279 279 279 279 279 279 279 279 280 280 280 280 280 280 280 280 280 280 280 280 280 280 280 280 280 281 281 281 281 281 281 281 281 281 281 281 281 281 281 281 281 282 282 282 282 283 283 283 283 283 283 283 283 283 283 284 284 284 284 284 284 284 284 284 285 285 285 285 285 285 285 285 285 285 286 286 286 286 286 287
280 280 280 280 279 279 279 279 279 279 279 279 279 279 279 280 280 280 280 280 280 280 280 280 280 280 280 281 281 281 281 281 281 281 281 281 281 281 281 281 281 281 281 281 281 281 281 282 282 282 282 282 283 283 282 283 283 283 283 283 284 284 284 284 284 284 284 284 284 285 285 285 285 285 285 286 286 286 286 286 286 286 286 286 286 287
280 279 279 279 279 279 279 279 279 279 279 279 279 279 279 280 280 280 280 280 280 280 280 281 281 281 281 281 281 281 281 281 281 281 281 281 281 281 281 281 281 281 281 281 281 281 282 282 282 282 282 282 282 282 282 282 283 283 283 283 284 284 284 284 284 285 285 285 285 285 285 286 286 286 286 286 286 287 287 287 287 287 287 287 287 287
279 279 279 279 279 279 279 279 279 279 279 279 279 279 279 280 280 280 280 280 280 280 281 281 281 281 281 281 281 281 281 281 281 281 281 281 281 281 281 281 281 281 281 281 282 282 282 282 282 282 282 282 282 282 282 282 282 283 283 283 284 284 284 285 285 285 285 286 286 286 286 286 286 287 287 287 287 287 287 287 287 288 288 288 288 288
279 279 279 279 279 279 279 279 279 279 279 279 279 279 279 280 280 280 280 280 280 280 280 281 281 281 281 281 281 281 281 281 281 281 281 281 281 281 281 282 282 282 282 282 282 282 282 282 282 282 282 282 282 282 282 282 282 283 283 283 284 284 285 285 285 285 286 286 286 286 286 287 287 287 287 288 288 288 288 288 288 288 288 288 288 288
279 279 279 279 279 279 279 279 279 279 279 279 279 279 280 280 280 280 280 280 280 280 280 281 281 281 281 281 281 282 282 282 282 282 282 282 282 282 282 282 282 282 282 282 282 282 282 282 282 282 282 282 282 282 282 282 282 283 283 284 284 284 285 285 285 285 285 286 286 287 287 287 288 288 288 289 289 289 289 289 289 289 289 289 289 289
279 279 279 279 279 279 279 279 279 279 279 279 279 280 280 280 280 280 280 280 280 280 280 280 280 281 281 281 281 282 282 282 282 282 282 282 282 283 283 282 282 282 282 282 282 282 282 282 282 282 282 282 282 282 282 282 282 283 284 284 284 285 285 285 285 285 286 286 287 287 288 288 288 288 289 289 290 290 290 290 290 290 290 290 290 290
278 278 279 279 279 279 279 279 279 279 279 279 280 280 280 280 280 280 280 280 280 280 280 281 281 281 281 281 281 281 282 282 282 282 282 283 283 283 283 282 282 282 282 282 282 282 282 282 282 282 282 282 282 282 282 283 283 283 284 284 285 285 285 285 285 286 286 287 287 287 288 288 288 289 289 290 290 290 290 290 290 290 291 291 291 291
278 278 278 278 278 279 279 279 279 279 279 280 280 280 280 280 280 280 280 280 280 280 280 281 281 281 281 281 281 281 282 282 282 282 283 283 283 283 283 283 282 282 282 282 282 282 282 282 282 282 282 282 282 283 283 283 284 284 285 285 285 285 285 286 286 286 287 287 287 288 288 288 289 289 289 290 290 290 290 290 290 291 291 291 291 291
278 278 278 278 278 279 279 279 279 279 279 280 280 280 280 280 280 280 280 280 280 280 280 281 281 281 281 281 281 281 282 282 282 283 283 283 283 283 283 283 283 282 282 282 282 282 282 282 282 282 282 282 282 283 283 284 284 284 285 285 285 285 286 286 286 287 287 287 287 288 288 288 289 289 289 290 290 290 290 290 290 291 291 291 291 291
278 278 278 278 278 279 279 279 279 279 279 280 280 280 280 280 280 280 280 280 280 280 280 281 281 281 281 281 281 282 282 282 283 283 283 283 283 283 283 283 283 283 283 282 282 282 282 282 283 283 283 283 283 283 283 284 284 285 285 285 285 286 286 286 287 287 287 287 288 288 288 289 289 289 289 290 290 290 290 290 290 290 291 291 291 291
278 278 278 278 278 278 279 279 279 279 279 279 280 280 280 280 280 280 280 280 280 280 280 281 281 281 281 281 282 282 282 282 283 283 283 283 283 283 283 283 283 283 283 283 283 283 283 283 284 284 284 284 284 283 284 284 285 285 285 286 286 286 286 287 287 287 287 288 288 288 288 289 289 289 289 290 290 290 290 290 290 290 291 291 291 291
278 278 278 278 278 278 278 279 279 279 279 279 279 280 280 280 280 280 280 280 280 280 281 281 281 281 281 281 282 282 282 283 283 283 283 283 283 283 283 283 283 283 283 283 283 283 283 284 284 285 285 285 285 285 285 285 285 285 285 286 286 286 286 287 287 287 287 288 288 288 289 289 289 289 289 289 290 290 290 290 290 290 291 291 291 291
Wind_Speed
24 24 24 24 25 26 25 24 24 25 27 26 25 25 26 26 26 26 26 26 26 27 27 27 28 29 30 31 31 31 32 33 34 34 35 35 36 36 36 36 37 37 38 39 39 40 40 41 41 41 41 41 41 41 41 41 41 41 41 41 40 40 39 39 39 38 38 38 38 37 37 36 36 37 37 37 37 37 37 37 37 37 37 38 38 37
25 25 24 24 25 26 26 25 24 24 26 27 27 27 27 28 28 27 26 26 25 25 26 26 27 29 29 30 30 31 32 33 33 34 35 35 35 36 36 36 37 38 38 39 39 40 40 40 40 41 41 41 41 41 41 41 41 40 40 40 39 39 38 38 38 38 38 37 37 36 36 36 36 36 36 36 37 37 37 37 37 37 37 38 38 37
25 26 25 24 24 25 26 26 26 25 26 27 28 28 28 29 28 27 25 24 24 24 24 25 27 29 30 31 31 31 31 32 33 33 34 34 35 35 36 36 37 37 38 39 39 40 40 40 40 41 41 41 41 40 40 40 39 39 38 38 38 38 38 38 38 38 37 37 37 37 37 37 37 37 37 36 36 36 37 37 37 37 37 38 38 37
25 25 26 25 24 24 25 26 27 27 27 27 28 28 28 28 26 25 23 23 23 24 25 27 28 30 30 30 30 30 31 32 32 33 33 34 34 35 36 36 37 38 38 39 40 40 40 40 40 40 39 39 39 39 38 38 38 38 38 38 38 38 38 38 38 38 37 37 37 37 38 38 38 38 37 37 37 37 37 37 38 38 38 38 38 37
24 25 26 26 25 25 25 26 27 27 27 27 27 27 26 25 23 22 22 22 24 26 28 29 29 29 29 29 29 29 30 31 32 32 33 34 35 36 36 37 38 38 39 39 39 39 39 38 38 38 38 38 38 38 38 38 38 38 38 38 38 38 38 38 38 38 38 38 37 37 37 37 37 37 37 36 36 36 37 37 37 38 38 38 37 37
25 25 25 25 25 26 26 26 27 27 27 26 25 25 23 21 21 21 22 24 26 27 28 28 28 28 27 28 28 29 30 31 32 33 34 35 36 36 37 37 38 38 38 37 37 37 37 37 37 37 37 38 38 38 38 38 38 39 39 38 38 38 38 38 38 38 38 37 36 36 36 35 35 35 35 34 34 34 34 35 35 35 35 34 34 34
26 25 24 25 26 26 26 26 26 26 26 25 24 22 21 21 22 23 23 25 26 27 27 28 27 27 27 27 28 29 30 31 32 33 34 34 35 35 36 36 36 36 36 36 36 36 36 36 37 37 37 37 37 38 38 38 38 39 39 39 39 39 38 38 37 37 37 37 37 36 36 35 35 35 35 34 34 34 34 34 34 34 33 33 32 33
26 26 25 25 26 27 27 26 25 24 23 22 21 21 22 23 24 25 26 26 27 27 27 28 28 28 27 28 29 30 30 31 31 32 32 32 33 33 34 34 34 35 35 35 35 35 36 36 36 36 37 37 37 38 38 38 38 39 39 38 38 38 38 38 37 37 37 37 37 37 36 36 36 36 36 36 35 35 36 36 36 36 35 34 33 33
24 25 26 25 25 25 25 25 24 22 21 19 19 20 22 24 26 27 28 28 27 27 27 28 28 29 29 29 29 29 30 30 30 31 31 31 32 32 33 33 34 34 34 34 34 34 35 35 36 36 37 37 38 38 39 39 39 39 39 38 38 38 38 38 37 37 37 37 37 36 36 36 36 36 36 36 36 36 37 37 38 38 37 36 36 35
24 25 26 25 24 23 22 23 22 21 18 18 19 20 21 25 27 28 28 28 28 27 27 27 28 29 29 29 29 29 30 30 30 31 31 31 32 32 33 33 33 32 33 33 33 34 35 35 36 37 37 38 38 39 39 39 39 38 38 38 38 38 38 37 37 37 37 36 36 36 36 36 36 36 36 36 36 36 37 37 38 38 38 38 38 37
25 25 25 24 23 22 19 18 18 18 19 21 23 24 25 26 26 26 27 28 28 29 28 27 27 28 28 29 29 29 29 30 30 30 29 29 30 30 30 30 30 31 31 32 33 34 35 35 36 36 37 37 37 37 37 37 37 37 37 37 37 37 37 37 37 36 36 36 36 36 35 35 35 36 36 35 35 35 36 36 37 37 38 38 38 38
24 23 22 21 20 18 16 17 19 21 24 25 26 26 27 26 26 25 25 26 28 29 29 29 28 28 28 28 29 29 29 29 29 28 28 27 27 27 27 28 28 29 30 31 32 33 33 33 34 35 35 35 35 35 35 35 36 36 36 36 36 36 36 36 36 36 35 35 35 35 35 35 35 35 35 35 35 35 35 35 36 36 36 37 37 38
22 19 17 15 14 15 17 20 23 26 26 26 24 23 24 26 26 26 26 26 27 28 29 29 29 29 28 27 26 26 27 28 28 28 27 26 26 26 26 27 28 28 29 29 30 30 31 31 32 33 33 33 34 34 34 34 35 35 35 35 35 35 35 35 35 35 35 35 35 35 35 35 35 35 35 35 35 35 35 35 35 36 36 36 37 37
17 15 13 13 15 18 21 24 25 25 25 25 25 24 25 26 26 26 26 26 27 28 28 28 29 29 28 26 25 24 25 26 27 27 26 26 25 25 26 27 28 29 29 29 30 30 30 30 30 31 31 31 32 32 32 33 33 33 34 34 34 34 34 35 35 35 35 35 36 36 36 36 36 36 36 36 36 36 36 36 36 36 37 37 37 38
11 12 13 16 19 22 24 25 25 25 25 26 26 26 26 26 25 25 24 25 26 28 28 28 28 28 27 25 23 23 23 24 25 25 25 26 26 26 27 28 29 30 30 29 29 29 30 29 29 29 29 30 30 31 31 32 32 33 33 34 34 34 35 35 35 36 36 36 36 37 37 37 37 37 37 37 37 37 37 37 37 37 37 38 38 38
14 16 16 18 21 23 25 25 25 25 26 26 25 25 24 24 25 24 24 24 25 26 25 24 23 23 24 25 24 23 23 24 24 25 25 27 28 28 27 28 29 30 30 29 29 29 28 28 28 28 29 29 30 31 31 32 32 33 34 34 35 36 36 36 37 37 37 37 37 37 37 37 37 37 37 37 37 37 37 37 37 37 37 38 38 37
19 20 20 20 21 24 26 26 25 25 25 24 24 24 24 24 24 24 24 24 23 22 20 18 12 10 15 24 27 25 24 24 25 25 26 28 29 29 28 27 28 29 29 29 29 28 28 28 28 28 28 28 29 30 31 33 34 35 35 36 37 37 37 37 37 37 37 37 37 37 37 37 37 37 37 37 37 37 37 37 37 37 37 38 38 37
21 21 21 21 22 24 25 25 24 24 23 23 24 24 25 25 25 24 24 22 20 18 18 18 14 9 8 13 23 28 26 25 25 26 27 28 30 30 28 27 27 28 29 29 28 28 28 28 28 28 29 30 31 32 34 35 35 36 37 37 37 37 37 37 37 37 37 37 37 37 37 37 37 37 37 37 37 37 37 37 37 37 37 38 38 38
22 22 23 22 23 24 24 23 22 23 23 23 24 25 25 25 24 23 21 20 19 18 18 18 18 18 16 20 26 29 28 26 26 26 26 28 30 30 28 26 26 27 28 28 28 27 27 27 28 29 31 32 33 34 34 35 35 36 36 36 36 36 36 36 36 36 36 37 37 37 37 37 37 37 37 37 37 37 37 37 37 37 38 38 39 39
23 24 23 22 22 22 22 22 23 23 24 25 26 25 24 23 21 20 20 21 22 22 23 22 21 21 23 25 28 30 29 27 26 26 26 27 28 28 27 25 25 26 28 28 28 27 27 27 28 29 30 31 31 32 33 33 34 34 35 35 35 36 36 36 36 37 37 37 37 37 37 37 37 37 37 37 37 37 37 37 37 37 38 38 39 39
23 23 23 22 21 21 21 23 25 26 26 26 25 23 21 20 20 21 22 24 25 25 25 22 22 23 25 27 29 31 30 27 25 24 25 25 26 27 26 25 24 25 27 28 28 27 26 26 27 27 28 29 30 31 32 33 34 34 35 36 36 36 36 37 37 37 37 37 37 37 37 37 37 37 37 37 37 37 37 38 37 37 38 38 38 39
23 23 24 23 23 23 23 25 26 27 26 25 22 19 19 20 22 24 25 26 25 24 23 23 24 26 27 29 30 31 29 25 23 22 21 19 22 26 26 24 24 25 26 27 27 26 26 26 27 28 29 30 32 33 34 34 35 35 36 36 36 36 36 36 36 37 37 37 37 37 37 37 37 37 37 37 37 38 38 38 38 38 38 38 39 39
23 24 25 25 24 24 24 25 25 25 24 22 21 20 21 24 25 26 26 26 25 25 25 26 27 28 28 28 29 28 26 23 22 21 19 13 17 24 26 25 24 24 26 27 27 27 27 28 28 29 30 31 32 33 34 34 34 35 35 35 36 36 36 36 36 36 36 36 36 36 36 36 37 37 37 37 37 37 38 38 38 38 39 39 39 40
24 24 25 24 24 25 25 25 25 24 24 24 25 25 25 26 26 26 26 25 26 26 26 26 27 26 25 26 26 26 24 23 21 21 19 15 17 23 27 25 24 25 26 28 28 28 28 28 29 29 30 31 31 32 33 33 34 34 34 35 35 35 35 35 35 35 35 35 35 35 36 36 36 36 36 37 37 37 38 38 38 39 39 40 40 40
24 24 24 24 24 25 25 26 27 27 28 28 27 27 26 26 26 26 26 25 24 24 24 23 22 21 22 23 24 24 24 22 20 19 19 18 21 25 26 25 24 24 27 28 29 28 28 29 29 30 30 30 31 32 32 33 33 33 33 33 33 33 33 33 33 34 34 34 35 35 35 35 36 36 36 36 37 37 38 38 38 39 39 39 40 40
26 26 25 25 26 27 28 29 30 30 29 28 27 26 25 26 25 24 24 23 21 21 21 18 16 17 21 22 22 22 23 22 21 20 20 19 20 23 25 24 23 24 26 28 28 28 28 29 30 30 30 30 30 30 30 30 31 31 31 31 31 32 32 33 33 34 34 35 35 35 36 36 36 36 37 37 37 37 37 38 38 38 39 39 40 40
24 24 24 25 26 28 29 29 29 29 28 27 26 26 25 25 24 22 21 21 20 19 18 13 11 13 18 17 19 21 24 23 22 21 20 19 19 20 22 23 23 24 26 28 29 28 28 28 29 30 29 28 28 27 27 28 28 29 30 31 31 32 32 33 34 34 35 35 35 36 36 36 36 36 36 37 37 37 37 37 38 38 38 39 39 39
20 21 23 25 26 27 28 28 27 27 26 25 25 24 24 23 22 20 19 20 20 19 18 12 10 10 10 12 17 23 25 24 22 21 19 18 16 17 22 24 24 24 25 27 29 29 28 27 26 26 26 26 25 25 26 27 28 29 30 31 32 32 32 33 33 33 34 34 34 35 35 35 35 36 36 36 37 37 37 37 38 38 38 37 36 36
20 22 24 25 26 26 26 25 25 24 24 23 23 22 22 21 19 19 20 21 20 19 18 16 13 11 10 16 21 24 24 23 21 20 18 17 16 18 23 24 24 24 24 25 27 28 26 24 23 22 23 24 25 25 26 27 28 28 29 30 30 30 31 31 31 31 32 32 33 34 34 35 35 36 36 37 37 37 37 38 38 37 36 35 34 34
23 24 24 24 24 23 23 23 23 22 22 22 21 21 20 19 18 19 20 20 19 18 17 18 17 16 15 15 15 15 16 20 21 20 19 17 16 19 23 23 23 23 22 20 17 17 20 21 22 21 21 23 25 26 26 27 27 27 27 28 28 28 28 29 29 30 31 32 32 33 34 34 35 35 36 36 37 37 37 38 37 37 35 34 33 33
24 24 23 23 22 22 21 21 21 21 20 20 19 19 18 18 18 19 19 19 18 17 18 18 18 18 17 10 6 5 7 18 23 22 21 18 17 19 22 22 23 23 22 17 10 6 11 14 20 25 23 24 25 26 27 27 26 26 26 27 26 27 27 28 29 30 30 31 31 32 32 33 34 34 35 35 36 36 37 37 37 36 35 34 33 32
23 22 22 22 22 21 21 20 20 19 19 19 19 18 18 18 18 18 18 18 17 17 18 19 19 19 19 14 10 8 9 20 26 25 23 19 19 21 23 22 22 23 22 20 15 10 8 6 16 27 28 27 27 27 27 26 26 25 26 26 26 26 28 28 28 28 29 29 30 30 31 31 32 33 34 34 35 35 36 36 36 35 34 33 32 32
22 22 22 22 21 21 20 19 19 19 19 19 19 18 18 19 18 18 18 18 18 18 18 19 19 19 19 19 18 18 20 25 26 26 24 20 19 21 23 22 22 22 22 22 21 17 12 9 16 25 28 28 28 27 26 26 25 24 24 25 26 26 27 27 27 27 27 28 28 29 30 30 31 32 33 33 34 34 35 35 35 35 34 33 32 31
22 22 21 21 20 20 19 19 19 19 19 19 19 19 18 19 19 19 19 19 19 19 19 20 19 19 19 19 19 21 24 26 26 26 24 22 21 21 23 23 22 22 21 20 21 20 17 18 20 21 23 27 28 27 26 25 24 24 23 23 25 26 26 27 27 27 27 27 28 28 29 29 30 30 31 31 32 33 33 34 34 34 34 34 32 30
21 21 20 20 20 19 19 19 19 19 19 19 19 19 19 19 19 19 20 20 20 20 21 21 21 21 20 19 18 20 24 27 28 27 26 24 23 23 23 23 22 21 20 19 19 17 14 18 21 20 18 20 24 26 26 24 23 23 23 23 24 24 25 26 26 26 27 27 27 27 27 28 28 29 29 30 30 31 32 33 33 34 35 35 35 33
20 20 20 19 19 19 19 19 19 19 19 19 19 19 20 20 21 21 21 22 22 22 22 22 22 23 23 22 22 22 25 29 30 30 28 26 25 23 22 23 23 22 20 19 19 16 12 14 19 22 18 13 15 21 25 25 24 23 23 23 24 24 25 26 25 25 26 26 26 27 27 27 28 28 29 30 31 32 33 34 34 35 36 36 37 37
19 19 19 19 19 19 19 19 19 19 19 20 20 20 21 21 22 22 22 23 23 23 24 23 24 24 24 24 25 26 28 29 31 31 31 29 28 26 23 23 24 24 21 19 19 18 16 12 13 15 14 11 10 14 22 26 26 25 24 24 24 24 25 25 25 25 25 26 26 27 28 27 27 28 29 31 31 32 32 33 33 34 35 36 37 38
18 18 19 19 19 19 19 19 19 19 20 20 21 21 22 23 23 23 23 23 23 24 24 24 24 25 26 26 28 30 31 31 33 34 34 33 30 28 25 23 23 23 22 21 20 20 18 13 11 11 11 12 15 19 24 25 25 25 26 26 25 25 24 24 24 24 24 25 26 28 28 28 28 29 30 30 29 29 29 30 31 31 32 33 34 36
18 18 19 19 19 19 19 19 19 20 21 21 21 22 22 23 24 23 23 22 22 23 23 23 24 25 27 28 29 30 30 31 32 33 33 32 31 28 26 24 23 23 23 22 21 21 19 14 11 10 10 11 15 21 26 25 24 25 26 27 27 25 24 23 23 24 25 26 27 28 29 29 29 29 29 29 28 27 27 28 29 29 30 29 30 31
18 18 19 19 19 19 19 20 20 21 21 22 22 22 22 22 23 23 23 22 22 22 23 23 24 24 25 26 26 27 28 29 30 30 30 30 30 28 26 24 23 23 23 22 21 21 20 18 17 17 17 14 13 17 22 24 25 25 26 23 22 24 26 26 25 25 26 26 26 26 27 28 28 28 28 28 27 27 27 28 29 29 29 27 26 26
18 19 19 19 19 20 20 20 21 21 22 22 22 21 21 21 22 22 23 23 22 22 23 22 23 24 25 25 25 25 26 27 27 27 27 28 28 28 26 25 24 23 23 22 22 21 21 20 20 21 21 20 19 20 22 24 25 26 24 20 20 24 28 27 26 25 25 25 25 26 27 28 28 28 28 28 28 28 29 29 29 30 30 29 27 25
18 19 19 20 20 20 21 21 21 21 21 21 20 20 20 20 21 21 22 23 23 23 23 22 23 24 25 26 25 24 24 24 24 25 25 26 26 26 26 25 24 24 23 22 21 21 21 21 20 20 20 20 19 18 18 23 25 25 23 22 23 26 27 27 25 24 23 25 27 28 28 28 27 27 28 28 29 30 31 31 31 31 30 29 29 28
19 19 20 20 21 21 21 21 21 21 20 20 20 20 20 20 20 20 21 22 23 23 23 22 22 22 23 24 25 25 24 24 23 23 24 24 24 24 24 24 24 24 24 21 20 21 22 22 21 20 21 20 19 17 16 21 24 24 23 23 23 20 16 21 26 27 27 27 27 28 27 27 27 28 28 28 29 30 31 31 31 31 31 31 30 29
19 19 20 20 20 20 21 20 20 20 20 20 20 20 20 20 20 20 21 21 22 22 22 21 21 21 21 22 23 24 24 23 22 22 22 22 22 21 22 22 23 23 23 21 20 20 21 21 21 21 21 20 19 18 18 19 21 22 23 23 23 19 15 19 25 28 28 28 27 27 28 29 29 30 29 28 28 28 28 28 29 29 30 31 31 30
19 20 20 20 20 20 20 20 20 20 20 20 20 20 20 20 20 20 21 21 21 21 21 21 19 19 19 20 22 23 23 23 22 21 21 21 21 21 21 21 22 22 22 21 20 19 19 19 20 22 22 20 18 18 18 19 20 21 22 23 23 23 24 26 26 26 26 27 28 29 30 31 30 29 27 26 26 26 25 26 26 27 28 28 28 28
19 19 20 20 20 20 20 20 20 20 20 20 20 20 20 20 20 20 21 21 21 21 21 21 18 17 16 18 20 21 22 22 22 21 21 21 21 21 21 20 20 20 21 21 22 22 21 21 21 22 21 19 18 18 19 18 18 18 20 22 23 23 24 25 25 25 25 27 28 30 32 33 31 28 25 26 26 26 25 25 26 26 26 27 27 27
19 20 20 20 20 20 20 20 20 20 20 21 21 20 20 20 20 20 21 20 20 20 20 20 18 17 17 19 19 19 19 20 21 22 22 21 21 21 21 21 21 21 21 21 22 22 23 23 24 22 20 17 15 16 18 18 17 18 19 21 22 22 22 23 24 25 25 26 28 31 33 33 31 28 26 26 25 25 24 24 25 26 26 26 26 27
19 20 20 20 20 20 20 20 20 20 20 21 21 21 21 20 20 20 20 21 20 19 19 19 18 17 18 19 20 19 19 20 21 21 22 21 21 21 21 21 22 22 21 21 21 21 22 23 24 23 22 18 14 14 16 17 18 19 20 21 21 21 21 23 25 26 26 27 29 32 32 30 27 25 25 24 23 22 24 25 25 25 25 25 25 26
19 19 19 19 19 19 20 20 20 20 20 21 22 23 23 22 21 20 20 20 19 19 18 18 18 18 18 19 20 20 21 21 20 21 21 21 21 21 21 22 22 22 21 21 21 20 20 21 20 20 20 20 18 15 16 17 18 19 20 20 20 20 21 23 25 26 26 27 29 31 31 29 27 25 23 20 18 19 23 25 25 25 26 26 26 26
19 19 19 19 19 19 20 20 20 20 21 21 22 23 23 23 22 21 20 19 19 18 18 18 17 17 18 19 20 20 20 20 20 20 20 20 20 20 21 21 22 22 21 21 20 19 18 17 16 15 15 16 17 16 16 16 18 19 20 20 20 20 21 22 24 26 26 27 28 29 29 29 28 26 24 20 17 17 21 23 25 26 27 27 27 27
19 19 19 19 19 19 20 20 20 21 21 21 22 22 22 22 22 22 21 20 19 19 18 18 18 17 18 18 19 20 20 20 19 19 20 20 20 20 19 20 20 19 17 16 15 15 14 12 11 12 12 11 10 12 14 16 17 18 18 19 20 20 20 22 24 26 27 27 27 27 27 27 27 26 25 21 16 14 15 18 22 27 29 29 29 29
Wind_Direction
299 301 302 303 303 302 301 301 301 300 300 300 300 300 301 300 299 298 297 296 295 294 294 293 294 296 297 296 296 295 294 293 293 293 293 293 293 292 291 290 289 288 288 288 287 287 287 287 287 287 287 287 288 288 288 289 288 288 288 287 287 287 286 285 285 283 282 281 280 280 279 279 278 278 278 277 277 276 275 275 274 274 274 273 272 272
301 301 302 303 302 302 301 301 300 298 298 299 300 300 300 300 300 299 297 296 295 294 295 295 296 297 297 297 295 294 293 293 293 293 293 292 292 291 290 289 289 288 288 288 288 288 288 288 289 289 289 290 290 290 290 289 289 288 288 287 287 286 285 284 283 282 281 280 280 279 279 278 278 277 276 276 276 275 274 274 273 272 272 271 270 270
302 302 302 302 302 301 300 301 300 299 297 297 298 299 299 299 299 298 297 296 295 295 296 296 298 298 298 297 295 294 292 292 292 292 291 291 291 291 290 290 290 290 290 290 290 290 290 290 290 290 290 290 290 290 289 289 288 287 287 286 285 285 284 283 282 281 280 280 279 279 278 277 277 276 275 275 275 274 274 273 272 271 270 270 269 268
300 301 301 302 301 299 298 299 300 299 298 297 297 297 298 298 297 296 296 295 296 296 297 298 299 299 298 297 295 294 292 292 291 291 291 291 291 291 292 292 292 292 291 291 291 291 290 290 290 289 289 288 288 288 287 287 286 286 285 284 284 283 283 282 281 280 280 279 278 277 276 275 275 274 273 272 272 271 270 270 269 267 267 266 266 266
297 298 299 301 300 299 298 298 299 299 298 297 297 297 297 297 296 295 295 296 297 298 299 300 300 299 298 297 295 294 294 293 293 293 293 293 293 293 293 292 292 291 291 290 290 289 289 288 288 287 287 286 286 286 286 286 285 285 284 284 283 283 282 282 281 281 280 279 278 277 276 275 274 273 272 271 270 269 268 267 267 265 264 263 262 262
295 295 297 297 297 297 298 298 299 299 299 298 297 297 297 296 296 296 296 299 300 301 300 300 300 299 297 297 296 296 296 296 296 296 295 295 294 293 292 291 291 290 289 289 288 288 287 287 286 286 285 285 285 285 285 285 285 285 285 284 284 283 283 283 283 282 282 282 281 281 280 279 278 277 276 274 273 272 272 271 271 269 267 265 262 261
294 294 294 294 294 295 296 297 298 299 299 298 298 298 297 298 299 300 300 301 301 301 300 300 300 299 299 298 298 299 299 298 298 297 295 294 293 292 291 290 289 289 289 288 288 287 286 286 286 285 285 285 286 286 286 286 286 285 285 285 285 285 285 285 285 284 284 284 284 283 282 282 281 281 280 279 279 278 278 278 278 277 276 273 269 266
293 293 293 292 293 294 295 295 296 297 298 297 298 299 302 302 303 304 303 301 301 301 302 302 302 301 301 300 300 300 299 299 298 296 295 294 293 292 291 290 289 289 289 288 287 287 286 286 286 286 286 286 286 286 286 286 286 286 286 287 286 286 286 286 285 285 284 284 283 283 282 281 281 280 280 280 280 279 279 279 279 279 279 277 275 271
290 292 292 291 291 293 295 296 297 297 297 296 297 300 304 305 306 306 305 304 303 303 304 304 304 303 302 301 300 299 298 297 296 295 295 294 293 292 291 291 290 289 288 288 287 286 286 286 286 286 286 286 287 287 287 287 287 287 287 287 287 287 286 286 285 285 284 283 282 282 281 281 280 279 279 278 278 277 276 276 275 276 276 275 274 272
287 288 289 289 290 290 292 295 297 299 300 299 298 299 301 305 307 308 307 306 306 306 305 304 303 303 302 301 300 299 298 297 295 294 293 293 292 291 291 290 289 289 288 287 287 286 286 286 286 286 287 287 287 287 287 287 287 287 287 286 286 286 285 285 284 284 283 283 282 282 281 281 280 279 278 277 276 275 274 273 272 272 272 271 270 269
288 287 288 289 290 290 289 292 297 303 306 305 303 302 302 305 307 309 309 308 307 307 305 304 302 301 302 301 301 300 299 298 297 296 295 294 293 292 291 290 289 288 288 288 287 287 287 287 287 287 287 287 287 286 286 286 286 286 285 285 285 285 284 284 284 283 283 283 282 281 281 280 280 279 278 277 276 275 274 272 272 271 270 270 269 268
285 286 287 288 290 293 294 298 303 307 308 308 307 306 306 307 308 308 307 306 306 306 305 304 302 300 300 300 300 300 299 298 298 298 298 297 296 295 294 293 291 291 290 289 289 288 287 287 287 287 286 286 286 286 285 285 285 285 284 284 284 284 284 283 283 283 283 282 281 281 280 279 279 278 277 277 276 275 273 272 271 271 270 269 268 266
281 283 284 287 292 299 305 307 308 308 309 308 308 308 308 308 308 307 304 302 302 302 303 303 302 300 299 298 298 298 298 298 299 299 299 298 298 298 297 295 294 293 292 291 290 289 288 288 287 287 286 286 286 285 285 284 284 284 284 284 283 283 283 283 282 281 281 280 280 279 279 278 277 276 276 275 274 273 272 271 270 269 268 267 266 265
284 289 294 299 303 306 307 308 308 308 308 307 306 306 305 306 306 304 302 300 299 300 301 300 300 300 300 299 298 298 298 299 299 300 299 298 298 298 298 296 294 294 293 292 290 289 289 289 288 287 286 285 285 284 284 284 284 284 283 283 282 282 281 281 280 280 279 279 279 278 278 277 277 276 275 274 273 272 271 270 269 267 266 265 264 263
301 309 310 308 306 305 306 306 306 306 305 305 305 304 304 304 303 302 300 299 299 301 301 300 299 299 300 300 301 301 301 301 300 300 299 298 298 298 298 296 294 293 293 291 290 289 289 289 288 286 286 285 284 284 284 284 284 284 283 283 282 282 281 281 280 280 280 280 280 279 279 278 277 276 276 275 274 273 272 270 269 268 267 266 265 264
315 313 309 306 304 304 304 305 305 304 304 304 303 303 302 301 300 299 299 298 299 300 301 301 302 302 302 303 303 304 304 303 302 300 300 299 298 299 298 296 294 293 292 291 289 289 290 289 287 286 286 285 285 285 285 284 284 284 284 283 283 283 283 283 282 282 282 281 281 280 279 278 277 277 276 275 274 273 272 271 270 269 268 267 266 265
310 307 304 303 302 302 303 304 303 302 302 302 301 300 299 297 297 297 296 296 297 299 300 301 302 304 306 306 306 306 307 306 304 302 300 299 298 299 298 296 293 292 292 291 290 290 290 289 288 286 286 285 285 286 286 285 285 285 286 285 285 285 284 284 283 283 282 281 281 280 279 278 277 276 275 274 273 272 271 270 269 269 268 267 266 265
303 302 301 300 300 301 302 303 302 301 301 300 299 298 297 295 294 294 294 295 295 297 300 302 302 302 304 305 305 306 308 307 305 303 301 299 298 299 299 296 293 291 291 291 290 290 290 288 287 286 286 286 286 287 287 287 286 286 286 286 285 285 284 284 283 282 282 281 280 279 279 278 277 276 275 274 273 272 271 270 269 268 267 266 265 264
300 299 299 299 299 300 301 300 300 299 299 298 298 297 295 294 293 293 293 295 298 299 301 302 301 300 298 298 300 303 306 307 305 302 300 298 298 299 299 297 293 291 291 291 291 291 290 288 287 287 286 287 287 287 286 286 286 286 286 285 285 284 284 283 283 282 282 281 280 280 279 278 277 276 275 274 273 272 271 270 269 268 267 266 265 264
298 297 297 297 298 298 297 296 296 296 296 295 295 293 291 293 294 295 297 300 302 302 301 299 297 296 296 296 298 301 305 306 305 301 298 297 297 298 299 297 294 292 291 292 292 292 291 290 288 288 287 287 287 287 287 286 286 286 286 285 285 285 284 284 283 283 282 281 280 280 279 278 277 276 275 274 274 273 272 271 270 269 268 267 266 265
295 294 294 294 295 294 293 293 293 293 293 292 291 290 291 295 299 302 304 304 303 301 299 296 294 295 296 296 297 299 303 304 302 298 297 297 296 297 298 298 295 293 292 293 294 294 293 291 290 289 289 289 289 288 288 288 287 287 287 287 286 286 285 284 283 282 282 281 280 279 278 278 277 276 275 275 274 274 273 272 271 270 269 268 267 267
290 290 291 292 291 289 288 288 289 289 290 290 291 294 299 304 306 306 305 303 301 299 297 295 294 294 295 294 295 297 300 300 297 295 296 296 295 296 299 299 297 294 293 294 295 296 295 294 293 292 291 291 291 290 289 289 288 288 287 287 286 286 285 284 283 283 282 281 281 280 279 278 277 277 276 275 274 274 273 272 271 270 269 268 267 266
288 288 290 291 289 287 285 285 287 290 294 297 301 304 306 305 304 302 300 299 298 296 295 294 293 293 293 292 294 296 298 297 296 295 294 291 293 297 300 301 299 296 294 296 298 299 298 296 295 294 293 292 291 290 289 289 288 288 287 287 287 287 286 285 284 284 283 282 282 280 279 278 277 276 275 274 273 272 271 270 269 268 267 266 265 264
289 289 289 289 288 287 287 289 293 299 304 306 306 305 303 301 299 297 296 295 294 294 293 294 294 294 293 294 295 297 298 299 299 297 295 292 293 297 300 301 300 298 297 298 300 301 300 297 295 294 294 292 291 290 290 289 289 289 288 288 288 288 287 286 285 284 283 282 281 280 279 278 277 276 274 273 272 271 270 268 267 266 266 265 264 263
290 289 289 289 290 292 296 299 303 305 305 305 304 302 301 300 299 297 296 294 293 293 295 296 296 296 297 299 299 299 300 301 301 298 295 293 294 296 299 301 300 298 299 300 301 301 300 298 296 295 294 293 292 292 291 290 289 289 289 289 289 288 287 286 285 284 283 282 281 281 280 279 278 277 275 274 273 272 270 269 268 267 266 266 265 264
289 289 290 292 295 298 301 302 302 302 302 302 301 301 302 302 301 299 297 296 295 297 298 298 297 298 300 300 300 300 302 304 303 300 295 294 294 296 299 301 301 299 299 301 302 302 300 299 298 297 296 294 293 292 291 290 290 290 290 290 289 289 288 287 286 286 285 284 283 283 282 281 280 279 278 276 275 274 273 272 271 270 269 268 267 266
290 292 294 297 300 301 302 301 301 300 300 300 300 300 301 301 301 299 297 297 299 301 301 299 297 299 301 301 300 301 303 305 304 301 297 294 293 295 298 302 303 302 301 302 302 302 300 298 297 297 296 295 293 293 292 292 292 292 292 291 290 290 289 288 287 287 286 285 284 283 282 281 280 279 278 277 276 275 274 273 272 271 270 270 269 268
296 299 301 302 302 302 301 301 300 300 300 300 300 300 300 300 298 296 295 298 301 302 300 298 296 298 299 301 301 302 303 303 302 302 301 298 294 294 299 303 305 305 304 304 303 302 300 297 296 295 295 295 296 296 295 295 295 294 293 292 291 290 289 288 287 287 286 285 283 283 281 280 279 278 277 276 274 273 272 271 270 270 269 268 267 265
305 305 304 303 302 302 301 301 300 300 300 300 300 300 300 298 294 292 294 298 299 299 298 297 297 297 296 299 301 302 302 301 302 305 308 304 297 295 301 304 306 307 307 307 306 305 302 300 298 297 297 298 299 299 298 297 296 295 293 292 291 290 289 288 287 286 286 285 284 282 281 280 279 278 277 276 275 274 272 271 270 270 269 267 265 263
309 308 306 305 304 303 302 302 301 300 300 300 301 300 300 296 292 290 292 295 295 294 295 296 297 297 298 299 300 300 300 301 305 309 312 307 300 299 303 305 306 307 309 309 309 307 305 304 303 302 301 301 300 300 299 298 296 295 294 293 292 290 289 288 288 287 286 285 284 283 282 281 280 279 278 277 276 275 274 273 272 271 270 268 266 264
310 309 308 307 306 305 305 304 302 302 302 302 302 302 300 297 293 290 291 291 290 289 292 294 295 296 297 298 298 296 298 301 305 310 311 305 300 299 303 304 305 306 308 307 307 306 306 306 307 307 306 304 302 301 299 298 297 296 295 294 293 291 291 291 290 290 288 287 285 284 283 282 281 280 279 278 277 276 275 274 273 272 270 269 267 265
309 308 308 307 307 307 306 305 305 305 305 304 304 303 300 298 295 293 291 290 288 287 289 291 292 293 293 292 289 288 290 298 302 306 308 303 299 300 303 303 303 304 305 303 299 296 300 304 308 308 308 306 304 302 300 299 297 296 296 295 294 292 294 295 294 293 292 290 289 287 286 284 282 281 280 279 278 277 276 274 273 271 270 268 266 264
308 308 308 308 307 307 307 307 307 307 306 306 305 303 301 299 297 295 293 291 289 288 287 289 291 292 291 290 288 287 290 294 298 303 305 303 300 300 302 303 302 303 303 301 298 294 291 292 301 305 306 306 304 303 302 300 298 297 295 295 295 294 296 297 297 295 294 293 292 290 289 286 284 283 281 280 279 277 276 274 272 270 269 267 265 264
308 308 308 308 308 308 308 308 309 309 308 307 306 304 302 301 299 298 296 294 292 291 288 288 288 289 291 291 290 290 292 294 297 301 304 303 300 300 301 302 302 303 303 302 300 298 294 294 297 301 304 305 305 304 303 302 301 299 297 295 296 296 296 297 297 296 295 294 292 290 289 287 285 284 282 281 279 278 276 275 273 270 267 265 263 262
309 309 309 309 310 310 310 310 310 310 309 308 307 306 305 304 302 301 299 297 295 293 290 287 285 285 286 287 288 290 292 295 298 301 302 300 298 298 299 300 301 301 301 301 301 300 298 297 298 300 302 303 304 304 304 304 304 303 301 298 296 295 295 295 295 294 294 292 290 289 288 287 286 284 283 281 280 279 277 276 274 272 268 265 263 261
309 309 310 311 311 312 311 312 311 311 310 309 308 308 307 306 305 303 301 300 299 296 293 289 287 284 283 282 282 284 287 291 295 298 298 296 295 295 295 296 297 298 297 298 298 299 298 298 299 300 300 300 302 304 306 307 307 306 303 301 299 297 295 295 293 292 291 291 290 289 288 287 286 285 284 282 281 280 278 277 275 273 271 268 264 261
309 309 310 311 312 312 312 312 312 311 311 310 309 309 308 307 306 304 302 300 299 298 296 293 290 287 284 281 281 282 284 287 291 293 293 292 292 291 290 291 293 294 293 293 295 296 297 297 298 299 300 296 296 302 306 308 309 308 305 303 301 299 297 296 294 292 290 289 289 289 289 288 287 286 285 285 283 282 280 278 276 273 271 269 267 264
309 310 310 312 312 312 312 311 311 310 310 310 309 308 307 306 306 304 302 300 298 297 298 295 292 291 290 287 284 284 285 286 287 290 291 291 290 288 287 287 289 289 288 287 289 291 294 294 296 297 297 298 299 300 303 306 307 307 305 305 303 300 298 297 296 294 292 291 291 290 290 289 288 287 287 286 285 283 281 279 277 274 272 270 268 265
310 310 311 311 312 312 311 310 309 309 309 308 307 306 305 305 305 305 303 301 300 299 298 296 294 293 293 291 290 289 288 288 289 290 291 291 289 287 286 286 286 287 286 285 285 286 288 288 290 292 294 297 300 301 302 303 303 304 305 307 306 304 301 300 299 297 295 293 292 292 292 291 290 288 287 286 284 282 280 278 277 276 274 271 269 267
311 310 310 310 311 310 309 308 308 308 308 307 306 306 305 305 306 307 306 305 303 302 301 299 297 295 294 293 293 292 291 291 291 292 292 291 290 288 286 285 284 285 286 285 283 283 284 284 285 287 289 291 295 299 300 300 300 302 305 307 307 306 305 304 302 299 297 295 293 292 292 293 292 290 287 285 282 279 277 277 277 276 274 270 267 266
310 310 310 310 310 309 308 307 307 307 308 307 307 306 307 307 308 310 309 309 308 307 307 305 303 302 301 299 297 295 294 294 293 292 293 293 292 291 287 285 284 284 285 284 284 283 283 283 285 287 288 290 292 294 295 296 297 299 301 301 300 301 302 303 301 300 299 298 297 295 295 294 293 291 288 286 283 281 279 277 276 275 274 270 265 261
310 309 309 310 310 309 309 308 308 308 308 308 307 306 306 308 308 309 310 311 311 311 310 309 308 307 306 305 303 302 300 299 297 295 295 296 295 293 290 287 285 284 284 284 285 285 285 285 285 285 286 288 289 291 292 294 296 298 298 297 298 301 304 305 305 305 304 303 301 300 298 296 294 292 290 288 286 284 282 279 276 274 272 269 265 261
309 308 308 309 309 308 309 309 309 310 310 310 308 307 307 308 308 308 309 308 308 309 310 309 307 306 306 306 307 307 306 304 302 300 299 299 298 296 294 291 289 287 286 284 286 288 289 289 286 284 284 285 286 287 289 292 295 297 297 297 300 304 308 309 309 309 308 305 303 301 299 297 295 294 293 290 288 286 284 281 278 275 272 269 267 264
308 308 308 308 309 309 311 311 311 311 311 310 309 308 309 309 308 308 308 307 306 306 306 307 307 306 305 304 306 309 309 307 306 304 303 302 303 302 300 297 295 292 288 285 285 289 292 292 290 288 286 286 284 283 285 288 292 294 296 298 299 300 299 302 304 306 306 305 304 303 302 301 300 299 297 295 292 289 286 283 280 277 275 273 270 267
309 309 309 310 311 311 311 311 311 311 310 310 308 308 310 309 309 308 308 306 305 305 306 306 306 306 306 305 307 309 310 310 310 309 308 308 310 309 306 302 299 296 292 288 285 285 287 289 291 292 292 289 285 281 281 284 287 291 294 298 299 298 296 297 300 302 304 306 306 306 306 305 304 303 302 301 299 295 290 286 283 281 280 278 274 271
311 311 311 312 312 311 311 311 311 312 311 311 310 310 311 311 310 308 307 306 305 305 306 307 306 303 303 305 307 309 310 311 312 312 312 312 312 312 310 307 305 302 298 293 290 287 284 283 285 289 291 291 288 284 281 281 283 288 293 298 301 302 301 301 302 303 304 306 308 309 309 310 310 309 307 306 305 303 298 293 289 286 285 283 280 277
312 311 311 311 311 311 311 312 313 313 312 312 312 312 312 312 311 310 309 307 306 305 307 307 305 302 300 303 305 306 308 309 311 312 313 314 314 314 314 313 311 308 303 298 294 291 287 284 282 282 282 284 286 286 284 284 285 290 295 300 303 304 304 304 305 306 306 307 309 310 311 313 315 314 312 310 309 307 305 301 298 295 292 290 287 283
311 311 311 310 311 311 312 313 313 313 313 312 312 313 314 313 312 310 309 309 308 307 307 307 305 303 302 303 304 304 305 306 308 310 312 313 315 316 317 317 316 314 310 305 300 296 292 289 285 280 274 270 272 279 284 288 291 294 298 301 303 304 304 305 307 309 310 310 309 310 312 313 313 312 311 312 313 313 312 310 307 304 301 297 293 289
309 309 309 309 309 310 311 312 313 312 312 311 312 314 314 314 313 310 308 308 308 307 305 305 304 304 304 304 305 305 306 307 307 308 310 312 315 317 318 319 319 318 316 314 311 307 303 299 293 284 273 262 259 265 275 285 291 296 299 301 303 304 306 308 310 312 313 313 313 312 313 313 311 310 310 314 317 318 317 316 313 311 309 307 303 300
309 308 308 309 308 308 309 310 311 311 310 310 311 312 313 314 314 312 310 309 308 306 305 304 303 303 304 304 305 306 308 308 308 309 310 312 315 317 318 320 321 322 322 322 322 321 320 316 310 301 288 268 257 257 267 281 293 299 303 304 305 306 307 310 312 314 315 315 315 315 314 315 316 316 317 318 319 320 320 320 319 319 318 318 316 314
310 309 309 308 308 308 308 309 309 309 308 308 309 309 310 311 312 312 312 311 310 308 306 304 303 302 302 303 304 306 308 308 308 308 309 312 315 316 317 319 321 323 324 324 326 327 328 327 325 322 316 300 278 267 271 285 296 302 305 307 308 310 311 312 314 316 317 317 317 317 317 318 321 323 324 323 320 319 321 322 323 324 325 325 325 324